Tracking 28790 objects as of 19-Apr-2024
HD Live streaming from Space Station
objects crossing your sky now

ONEWEB-0625

Track ONEWEB-0625 now!
10-day predictions
ONEWEB-0625 is classified as:


NORAD ID: 55166
Int'l Code: 2023-004AC
Perigee: 1,199.5 km
Apogee: 1,202.2 km
Inclination: 87.9 °
Period: 109.3 minutes
Semi major axis: 7571 km
RCS: Unknown
Launch date: January 10, 2023
Source: United Kingdom (UK)
Launch site: AIR FORCE WESTERN TEST RANGE (AFWTR)
Your satellite tracking list
Your tracking list is empty




NASA's NSSDC Master Catalog

Two Line Element Set (TLE):
1 55166U 23004AC  24109.65092323 -.00000046  00000-0 -15057-3 0  9991
2 55166  87.9214 163.0044 0001760  93.2541 266.8791 13.17649815 63601
Source of the keplerian elements: AFSPC